Location: Newark
(40.9833°N, 0.0333°W)
Time: 03:03:47
(UTC+00:00)

Transit 2A Rocket - Pass Details

Date: 03 November 2020
Orbit: 588 x 914 km, 66.7° (Epoch: 26 November)

Event Time Altitude Azimuth Distance (km) Brightness Sun altitude
Rises 09:55:53 0° 260° (W) 3,538 8.2 28.5°
Reaches altitude 10° 09:59:27 10° 281° (W) 2,579 7.5 28.8°
Maximum altitude 10:03:11 17° 319° (NW) 2,104 6.9 29.1°
Drops below altitude 10° 10:06:49 10° 358° (N) 2,499 7.3 29.4°
Sets 10:10:13 0° 19° (NNE) 3,379 8.0 29.7°
